Weather History for Spirit of St Louis, MO

Change the Weather History Date:

Friday, November 23, 2012

  Actual Average Record
Temperature  
Mean Temperature 39 °F -  
Max Temperature 50 °F 50 °F 68 °F (2003)
Min Temperature 28 °F 31 °F 19 °F (2013)
Degree Days  
Heating Degree Days 26    
Moisture  
Dew Point 25 °F    
Average Humidity 57    
Maximum Humidity 79    
Minimum Humidity 40    
Precipitation  
Precipitation 0.00 in - - ()
Sea Level Pressure  
Sea Level Pressure 30.28 in    
Wind  
Wind Speed 14 mph (WNW)    
Max Wind Speed 24 mph    
Max Gust Speed 30 mph    
Visibility 10 miles    
Events      
Averages and records for this station are not official NWS values.
T = Trace of Precipitation, MM = Missing Value Source: NWS Daily Summary

Daily Weather History Graph

Daily Weather History Graph

Search for Another Location

Airport:

Trip Planner

Search our weather history database for the weather conditions in past years. The results will help you decide how hot, cold, wet, or windy it might be!

Date:

Astronomy

Nov. 23, 2012 Rise Set
Actual Time 6:53 AM CST 4:44 PM CST
Civil Twilight 6:25 AM CST 5:13 PM CST
Nautical Twilight 5:52 AM CST 5:45 PM CST
Astronomical Twilight 5:20 AM CST 6:17 PM CST
Moon 1:56 PM CST (11/23) 2:15 AM CST (11/23)
Length of Visible Light 10h 48m
Length of Day
9h 50m
Waxing Gibbous, 80% of the Moon is Illuminated
Nov 23
Waxing Gibbous
Nov 28
Full
Dec 6
Last Quarter
Dec 13
New
Dec 19
First Quarter

Hourly Weather History & Observations

Time (CST) Temp. Windchill Dew Point Humidity Pressure Visibility Wind Dir Wind Speed Gust Speed Precip Events Conditions
12:54 AM 50.0 °F - 37.0 °F 61% 30.14 in 10.0 mi WNW 18.4 mph 24.2 mph N/A   Scattered Clouds
1:54 AM 48.0 °F - 36.0 °F 63% 30.17 in 10.0 mi NW 17.3 mph 21.9 mph N/A   Partly Cloudy
2:54 AM 45.0 °F 40.1 °F 33.1 °F 63% 30.18 in 10.0 mi WNW 9.2 mph - N/A   Clear
3:54 AM 39.0 °F 33.4 °F 30.9 °F 73% 30.18 in 10.0 mi West 8.1 mph - N/A   Clear
4:54 AM 39.0 °F 34.0 °F 32.0 °F 76% 30.19 in 10.0 mi WSW 6.9 mph - N/A   Clear
5:54 AM 36.0 °F 29.6 °F 30.0 °F 79% 30.18 in 10.0 mi WSW 8.1 mph - N/A   Clear
6:54 AM 39.9 °F 35.1 °F 33.1 °F 77% 30.20 in 10.0 mi West 6.9 mph - N/A   Mostly Cloudy
7:37 AM 42.8 °F 35.8 °F 33.8 °F 70% 30.22 in 10.0 mi WNW 13.8 mph - N/A   Mostly Cloudy
7:54 AM 43.0 °F 37.2 °F 33.1 °F 68% 30.24 in 10.0 mi NW 10.4 mph 19.6 mph N/A   Overcast
8:54 AM 43.0 °F 36.0 °F 30.9 °F 62% 30.26 in 10.0 mi WNW 13.8 mph 20.7 mph N/A   Overcast
9:54 AM 43.0 °F 35.7 °F 28.0 °F 56% 30.30 in 10.0 mi NW 15.0 mph - N/A   Mostly Cloudy
10:54 AM 44.1 °F 35.0 °F 25.0 °F 47% 30.31 in 10.0 mi WNW 24.2 mph 29.9 mph N/A   Partly Cloudy
11:54 AM 45.0 °F 37.9 °F 24.1 °F 44% 30.29 in 10.0 mi NW 16.1 mph 23.0 mph N/A   Clear
12:54 PM 44.1 °F 35.9 °F 21.0 °F 40% 30.29 in 10.0 mi NW 19.6 mph 24.2 mph N/A   Clear
1:54 PM 43.0 °F 34.0 °F 19.9 °F 40% 30.29 in 10.0 mi WNW 21.9 mph 27.6 mph N/A   Clear
2:54 PM 42.1 °F 33.1 °F 19.0 °F 40% 30.31 in 10.0 mi NW 20.7 mph 27.6 mph N/A   Clear
3:54 PM 39.9 °F 30.2 °F 18.0 °F 41% 30.33 in 10.0 mi WNW 20.7 mph 29.9 mph N/A   Clear
4:54 PM 37.9 °F 28.5 °F 18.0 °F 45% 30.34 in 10.0 mi NW 17.3 mph 25.3 mph N/A   Clear
5:54 PM 36.0 °F 28.5 °F 18.0 °F 48% 30.36 in 10.0 mi WNW 10.4 mph - N/A   Clear
6:54 PM 35.1 °F 27.4 °F 18.0 °F 50% 30.38 in 10.0 mi WNW 10.4 mph - N/A   Clear
7:54 PM 33.1 °F 26.1 °F 18.0 °F 54% 30.38 in 10.0 mi WNW 8.1 mph - N/A   Clear
8:54 PM 32.0 °F 23.0 °F 18.0 °F 56% 30.39 in 10.0 mi NW 11.5 mph 18.4 mph N/A   Clear
9:54 PM 30.9 °F 23.5 °F 17.1 °F 57% 30.39 in 10.0 mi WNW 8.1 mph - N/A   Clear
10:54 PM 28.9 °F 22.8 °F 17.1 °F 61% 30.39 in 10.0 mi West 5.8 mph - N/A   Clear
11:54 PM 28.0 °F 20.8 °F 17.1 °F 63% 30.38 in 10.0 mi West 6.9 mph - N/A   Clear